[[{"header":{"parameterUnit":"m.s-1","parameterCategory":1,"la1":30.2991,"la2":30.254,"lo1":-89.0895,"lo2":-89.0444,"dy":0.0017,"dx":0.0017,"nx":28,"ny":28,"refTime":"2025-05-23T03:00:00:Z","depth":0,"parameterNumber":2,"parameterNumberName":"U-component_of_WINDS"},"data":[0,0,0,0,0,0,0,0,0,0,0,0,0,0,0,0,0,0,0,0,0,0,0,0,0,0,0,0,0,0,0,0,0,0,0,0,0,0,0,0,0,0,0,0,0,0,0,0,0,0,0,0,0,0,0,0,0,0,-0.2778,-0.2778,0,-0.2777,-0.2777,-0.2777,-0.2772,-0.2772,-0.2771,-0.2771,-0.2771,-0.2771,-0.2771,0,0,0,0,0,0,0,0,0,0,0,0,0,-0.2776,-0.2776,-0.2778,-0.2778,-0.2778,-0.2777,-0.2777,-0.2777,-0.2772,-0.2772,-0.2771,-0.2771,-0.2771,-0.2771,-0.2771,0,0,0,0,0,0,0,0,0,0,0,0,0,-0.2776,-0.2776,-0.2778,-0.2775,-0.2775,-0.2777,-0.2777,-0.2777,-0.2772,-0.2772,-0.2771,-0.2771,-0.2771,-0.2771,-0.2772,-0.2776,0,0,-0.2772,-0.2772,0,0,0,0,0,0,0,0,-0.2776,-0.2776,-0.2775,-0.2775,-0.2775,-0.2774,-0.2776,-0.2776,-0.2772,-0.2773,-0.2771,-0.2771,-0.2772,-0.2772,-0.2773,-0.2776,-0.2776,-0.2772,-0.2772,-0.2772,-0.2772,0,0,0,0,0,0,0,-0.2776,-0.2776,-0.2777,-0.2775,-0.2775,-0.2774,-0.2774,-0.2776,-0.2774,-0.2773,-0.2772,-0.2772,-0.2772,-0.2773,-0.2773,-0.2776,-0.2772,-0.2772,-0.2772,-0.2772,-0.2783,-0.2783,0,0,0,0,0,0,-0.2776,-0.2776,-0.2777,-0.2777,-0.2775,-0.2774,-0.2774,-0.2775,-0.2774,-0.2773,-0.2773,-0.2772,-0.2772,-0.2772,-0.2773,-0.2778,-0.2772,-0.2772,-0.2772,-0.2783,-0.2783,-0.2783,0,0,0,0,0,0,-0.2776,-0.2776,-0.2777,-0.2777,-0.2777,-0.2774,-0.2775,-0.2775,-0.2775,-0.2773,-0.2773,-0.2773,-0.2772,-0.2772,-0.2775,-0.2778,-0.2772,-0.2773,-0.2783,-0.2783,-0.2783,-0.2789,0,0,0,0,0,0,-0.2776,-0.2776,-0.2778,-0.2777,-0.2777,-0.278,-0.2775,-0.2775,-0.2775,-0.2775,-0.2774,-0.2774,-0.2772,-0.2775,-0.2775,-0.2778,-0.2773,-0.2782,-0.2783,-0.2783,-0.2788,-0.2789,-0.279,0,0,0,0,0,-0.2776,-0.278,-0.2778,-0.2778,-0.2779,-0.278,-0.278,-0.2778,-0.2775,-0.2777,-0.2776,-0.2774,-0.2777,-0.2775,-0.2776,-0.2779,-0.2782,-0.2783,-0.2783,-0.2788,-0.2789,-0.279,0,0,0,0,0,0,-0.2782,-0.278,-0.2778,-0.2781,-0.2781,-0.2779,-0.2781,-0.2779,-0.278,-0.2779,-0.2777,-0.2776,-0.278,-0.2779,-0.2777,-0.2783,-0.2779,-0.278,-0.2783,-0.2784,-0.2785,-0.2785,-0.2773,0,0,0,0,0,-0.2784,-0.2785,-0.2783,-0.2786,-0.2786,-0.2784,-0.2784,-0.2782,-0.2782,-0.2782,-0.2781,-0.2781,-0.2782,-0.2783,-0.2784,-0.2788,-0.2788,-0.279,-0.2791,-0.2792,-0.2792,-0.2795,-0.2796,-0.2785,-0.2785,-0.2785,0,0,-0.2788,-0.2786,-0.2787,-0.2787,-0.2787,-0.2788,-0.2784,-0.2785,-0.2786,-0.2782,-0.2785,-0.2784,-0.2784,-0.2787,-0.2789,-0.2787,-0.2795,-0.2792,-0.2793,-0.2793,-0.2795,-0.2796,-0.2797,-0.2785,-0.2785,-0.2785,0,0,-0.2795,-0.2794,-0.2797,-0.2796,-0.2795,-0.2793,-0.2794,-0.2793,-0.2792,-0.2794,-0.2791,-0.2792,-0.2794,-0.2794,-0.2795,-0.2801,-0.2799,-0.2802,-0.2806,-0.2808,-0.2809,-0.281,-0.2813,-0.2814,-0.2802,-0.2802,-0.2802,0,-0.28,-0.2802,-0.2798,-0.28,-0.28,-0.2796,-0.2799,-0.2798,-0.2798,-0.2798,-0.2796,-0.2798,-0.2798,-0.2801,-0.2803,-0.2803,-0.2804,-0.2802,-0.2809,-0.281,-0.2811,-0.2813,-0.2814,-0.2802,-0.2802,-0.2802,-0.2802,0,-0.2808,-0.2809,-0.2811,-0.2811,-0.2811,-0.2813,-0.281,-0.2811,-0.2809,-0.2807,-0.281,-0.2809,-0.281,-0.281,-0.2808,-0.2813,-0.2812,-0.281,-0.2806,-0.2812,-0.2815,-0.2815,-0.2803,-0.2803,-0.2803,-0.2803,0,0,-0.282,-0.2817,-0.2818,-0.2817,-0.2816,-0.2817,-0.2819,-0.2819,-0.282,-0.2819,-0.2821,-0.2822,-0.282,-0.282,-0.2818,-0.282,-0.2826,-0.2817,-0.2817,-0.2819,-0.2831,-0.2834,-0.2835,-0.2824,-0.2824,-0.2824,-0.2831,0,-0.2828,-0.2831,-0.2828,-0.2831,-0.2833,-0.2828,-0.283,-0.2829,-0.2827,-0.2828,-0.2827,-0.2828,-0.2824,-0.2824,-0.2826,-0.2825,-0.2828,-0.2824,-0.2826,-0.2826,-0.2827,-0.2836,-0.2839,-0.2846,-0.2832,-0.2832,-0.2833,0,-0.2837,-0.2837,-0.2841,-0.2838,-0.2839,-0.284,-0.284,-0.2841,-0.284,-0.2839,-0.2838,-0.2836,-0.2838,-0.2834,-0.2836,-0.2834,-0.2834,-0.2833,-0.2834,-0.2834,-0.283,-0.2838,-0.2848,-0.2849,-0.2834,-0.2834,-0.2834,0,-0.2847,-0.2847,-0.2849,-0.2849,-0.2846,-0.2847,-0.2846,-0.2845,-0.2845,-0.2845,-0.2845,-0.2845,-0.2845,-0.2846,-0.2843,-0.284,-0.2846,-0.2842,-0.2845,-0.2846,-0.2848,-0.2848,-0.2859,-0.2847,-0.2847,-0.2847,-0.2847,0,-0.2856,-0.2858,-0.2853,-0.2855,-0.2858,-0.2854,-0.2856,-0.2855,-0.2854,-0.2855,-0.2851,-0.2852,-0.2848,-0.2849,-0.2847,-0.285,-0.285,-0.2849,-0.2849,-0.285,-0.285,-0.2851,-0.2851,-0.2847,-0.2847,-0.2847,-0.2847,0,-0.2867,-0.2864,-0.2866,-0.2863,-0.2862,-0.2864,-0.2862,-0.2863,-0.2861,-0.2862,-0.2863,-0.2859,-0.286,-0.2857,-0.2858,-0.2856,-0.286,-0.2859,-0.2861,-0.2861,-0.2865,-0.2864,-0.2877,-0.2879,-0.2865,-0.2865,-0.2865,0,-0.2874,-0.2876,-0.2872,-0.2873,-0.2872,-0.2872,-0.2872,-0.2868,-0.2868,-0.2867,-0.2869,-0.2869,-0.2869,-0.2871,-0.2868,-0.2869,-0.2868,-0.2872,-0.2868,-0.2869,-0.2868,-0.2868,-0.2869,-0.2873,-0.2873,-0.2873,-0.2873,0,-0.2886,-0.2884,-0.2884,-0.2883,-0.2883,-0.2883,-0.2882,-0.2882,-0.2878,-0.2878,-0.2879,-0.2879,-0.2879,-0.2879,-0.2879,-0.2878,-0.2875,-0.2875,-0.2876,-0.2877,-0.2879,-0.2878,-0.2864,-0.2875,-0.2874,-0.2874,-0.2874,-0.2874,-0.2895,-0.2897,-0.2895,-0.2895,-0.2893,-0.2893,-0.2894,-0.2891,-0.2891,-0.2891,-0.2888,-0.289,-0.2888,-0.2887,-0.2886,-0.2887,-0.2885,-0.2887,-0.2887,-0.2888,-0.2889,-0.2878,-0.2887,-0.2887,-0.2887,-0.2887,-0.2887,0,-0.2908,-0.2906,-0.2906,-0.2905,-0.2905,-0.2901,-0.29,-0.29,-0.2901,-0.2899,-0.2899,-0.29,-0.29,-0.2898,-0.2898,-0.2899,-0.2898,-0.2899,-0.2899,-0.2899,-0.289,-0.2889,-0.29,-0.29,-0.29,-0.29,-0.29,-0.29,-0.2915,-0.2917,-0.2914,-0.2916,-0.2914,-0.2915,-0.2914,-0.2913,-0.2912,-0.2913,-0.2913,-0.2911,-0.2909,-0.2909,-0.2909,-0.2908,-0.2908,-0.2911,-0.291,-0.2901,-0.29,-0.2899,-0.2898,-0.2911,-0.2911,-0.2919,-0.2919,-0.2919]},{"header":{"parameterUnit":"m.s-1","parameterCategory":1,"la1":30.2991,"la2":30.254,"lo1":-89.0895,"lo2":-89.0444,"dy":0.0017,"dx":0.0017,"nx":28,"ny":28,"refTime":"2025-05-23T03:00:00:Z","depth":0,"parameterNumber":3,"parameterNumberName":"V-component_of_WINDS"},"data":[0,0,0,0,0,0,0,0,0,0,0,0,0,0,0,0,0,0,0,0,0,0,0,0,0,0,0,0,0,0,0,0,0,0,0,0,0,0,0,0,0,0,0,0,0,0,0,0,0,0,0,0,0,0,0,0,0,0,0.3284,0.3284,0,0.3314,0.3315,0.3315,0.3264,0.3262,0.3261,0.3259,0.3293,0.3295,0.3298,0,0,0,0,0,0,0,0,0,0,0,0,0,0.3183,0.3185,0.3284,0.3284,0.3284,0.3314,0.3315,0.3315,0.3265,0.3262,0.326,0.3258,0.3292,0.3295,0.3298,0,0,0,0,0,0,0,0,0,0,0,0,0,0.3222,0.3186,0.3284,0.3263,0.3261,0.3314,0.3315,0.3315,0.3265,0.3262,0.326,0.3257,0.3291,0.3295,0.3299,0.3374,0,0,0.331,0.3312,0,0,0,0,0,0,0,0,0.322,0.3225,0.3265,0.3264,0.3263,0.3283,0.3292,0.3335,0.3266,0.3264,0.3259,0.3256,0.3292,0.3295,0.3307,0.3376,0.3377,0.3311,0.3313,0.3314,0.3316,0,0,0,0,0,0,0,0.3217,0.3224,0.3296,0.3266,0.3264,0.3252,0.3255,0.33,0.3292,0.3264,0.326,0.3264,0.3291,0.3303,0.3307,0.3378,0.331,0.3314,0.3316,0.3318,0.351,0.3513,0,0,0,0,0,0,0.3216,0.3222,0.3295,0.3297,0.3234,0.3256,0.3259,0.3279,0.3291,0.3291,0.3266,0.3262,0.3298,0.3303,0.3308,0.3398,0.3314,0.3318,0.332,0.3507,0.3511,0.3514,0,0,0,0,0,0,0.3215,0.3223,0.3294,0.3258,0.3266,0.3261,0.3283,0.3281,0.3294,0.3293,0.3292,0.3281,0.3296,0.3303,0.3358,0.3399,0.332,0.3323,0.3504,0.3508,0.3512,0.3578,0,0,0,0,0,0,0.3212,0.3223,0.3251,0.3259,0.3268,0.3343,0.3286,0.3283,0.33,0.3294,0.3307,0.3306,0.3295,0.3353,0.3362,0.3402,0.3326,0.35,0.3506,0.3511,0.3572,0.3584,0.3594,0,0,0,0,0,0.3208,0.3269,0.3253,0.3262,0.3304,0.3345,0.335,0.3335,0.3304,0.3332,0.3332,0.3306,0.3392,0.3359,0.3369,0.3411,0.3498,0.3504,0.3511,0.3568,0.3582,0.3594,0,0,0,0,0,0,0.3268,0.327,0.3252,0.3317,0.3331,0.3336,0.3372,0.3351,0.3375,0.3369,0.3349,0.3353,0.3412,0.3416,0.3379,0.3485,0.344,0.3449,0.348,0.3493,0.3504,0.3502,0.3329,0,0,0,0,0,0.3288,0.3321,0.3321,0.3379,0.3386,0.3378,0.3396,0.3383,0.3397,0.3403,0.3406,0.3422,0.3452,0.3473,0.3501,0.3572,0.3575,0.3606,0.3617,0.3626,0.3634,0.3673,0.3687,0.3535,0.3535,0.3535,0,0,0.3331,0.3336,0.3358,0.3391,0.34,0.3435,0.3384,0.3423,0.3449,0.3409,0.3461,0.3464,0.348,0.3543,0.3572,0.3549,0.3676,0.3634,0.3641,0.3645,0.3681,0.3695,0.3708,0.3539,0.3538,0.3538,0,0,0.3428,0.3434,0.3483,0.3493,0.3507,0.3501,0.3513,0.3521,0.3521,0.3573,0.3544,0.3574,0.3627,0.364,0.3653,0.3753,0.373,0.3762,0.382,0.3858,0.387,0.3881,0.3917,0.393,0.377,0.377,0.377,0,0.348,0.353,0.3511,0.3552,0.3568,0.3531,0.3581,0.3592,0.3615,0.3627,0.3601,0.3666,0.3674,0.374,0.3765,0.3776,0.3789,0.3762,0.387,0.388,0.389,0.3924,0.3938,0.3774,0.3774,0.3773,0.3773,0,0.3594,0.363,0.3667,0.369,0.3709,0.3754,0.3742,0.3764,0.3749,0.3746,0.3799,0.3807,0.3836,0.385,0.3837,0.3915,0.3901,0.3872,0.3827,0.3908,0.3941,0.3954,0.378,0.3779,0.3777,0.3776,0,0,0.3731,0.374,0.3755,0.3764,0.3777,0.3804,0.3848,0.3875,0.3895,0.3911,0.3948,0.3993,0.3967,0.3982,0.3969,0.4002,0.4081,0.3969,0.3969,0.3991,0.4169,0.4191,0.4206,0.4065,0.4067,0.4069,0.4168,0,0.3827,0.3902,0.3885,0.3959,0.3992,0.3957,0.3995,0.4007,0.4005,0.4033,0.403,0.4063,0.4026,0.4034,0.4065,0.4065,0.4117,0.4057,0.41,0.4102,0.4099,0.4223,0.4247,0.4339,0.418,0.4182,0.4184,0,0.3951,0.3971,0.4048,0.4054,0.4067,0.4102,0.4125,0.4152,0.4165,0.4161,0.4178,0.4158,0.4201,0.4154,0.4215,0.4175,0.4191,0.4193,0.4196,0.4201,0.4149,0.4233,0.4368,0.4383,0.4203,0.4202,0.42,0,0.4044,0.409,0.4142,0.4151,0.416,0.4185,0.419,0.42,0.4218,0.4238,0.4249,0.4275,0.429,0.4311,0.4299,0.4265,0.4361,0.4313,0.436,0.4361,0.4383,0.4382,0.4525,0.4392,0.4391,0.4391,0.4391,0,0.4154,0.4203,0.4184,0.4216,0.427,0.425,0.4303,0.4304,0.4313,0.4346,0.4317,0.4348,0.4329,0.4359,0.435,0.4401,0.4408,0.4407,0.4404,0.441,0.4411,0.4422,0.4416,0.4395,0.4394,0.4393,0.4393,0,0.4268,0.4257,0.4312,0.4315,0.4317,0.4356,0.436,0.439,0.4384,0.4426,0.4434,0.4427,0.446,0.4449,0.4485,0.4479,0.4545,0.4533,0.4541,0.4539,0.4587,0.4583,0.4743,0.4763,0.4615,0.4617,0.4618,0,0.4341,0.4377,0.4384,0.4403,0.4409,0.444,0.4458,0.4439,0.4459,0.4476,0.4504,0.4534,0.4558,0.4613,0.4611,0.4638,0.4628,0.4682,0.4632,0.4637,0.463,0.4629,0.4633,0.4693,0.4694,0.4696,0.4697,0,0.447,0.4463,0.4488,0.4512,0.4533,0.4551,0.4567,0.4584,0.4567,0.459,0.4623,0.4641,0.4677,0.4708,0.4733,0.4738,0.4716,0.4712,0.4725,0.4733,0.4736,0.4736,0.457,0.4709,0.4708,0.4707,0.4706,0.4706,0.4566,0.4597,0.4606,0.4636,0.4645,0.466,0.4689,0.4687,0.4714,0.4741,0.4728,0.4767,0.4778,0.4809,0.4818,0.4848,0.4827,0.4845,0.485,0.4855,0.4862,0.473,0.4852,0.4852,0.4851,0.4851,0.4851,0,0.4695,0.4699,0.4726,0.4748,0.4772,0.4746,0.4762,0.4783,0.4817,0.4829,0.4853,0.4891,0.492,0.492,0.4948,0.4972,0.4963,0.498,0.4979,0.4981,0.4878,0.4865,0.4988,0.4988,0.4988,0.4988,0.4988,0.4988,0.4765,0.4816,0.4809,0.4865,0.4868,0.4905,0.4916,0.493,0.494,0.4983,0.5007,0.5007,0.5014,0.5042,0.5068,0.5067,0.508,0.5102,0.5097,0.5002,0.4988,0.4975,0.4963,0.5104,0.5104,0.5198,0.5198,0.5199]}]]